******** Week 147 almanac for PRN-1 ******** ID: 1 Health: 0 Eccentricity: 0.01134061813 Time of Applicability(s): 503808 Orbital Inclination(rad): 0.9865797437 Rate of Right Ascen(r/s): -7.806039438e-09 SQRT(A) (m 1/2): 5153.625488 Right Ascen at Week(rad): -1.662908578 Argument of Perigee(rad): 0.8822217128 Mean Anom(rad): -1.498701852 Af0(s): 0.0003474438599 Af1(s/s): -1.091394e-11 week: 147 ******** Week 147 almanac for PRN-2 ******** ID: 2 Health: 0 Eccentricity: 0.02067232132 Time of Applicability(s): 503808 Orbital Inclination(rad): 0.9649302414 Rate of Right Ascen(r/s): -7.908900866e-09 SQRT(A) (m 1/2): 5153.63916 Right Ascen at Week(rad): -1.751983577 Argument of Perigee(rad): -1.447119875 Mean Anom(rad): -1.347175559 Af0(s): -0.0005140058838 Af1(s/s): 0 week: 147 ******** Week 147 almanac for PRN-3 ******** ID: 3 Health: 0 Eccentricity: 0.003866672516 Time of Applicability(s): 503808 Orbital Inclination(rad): 0.9725102637 Rate of Right Ascen(r/s): -8.137481816e-09 SQRT(A) (m 1/2): 5153.632812 Right Ascen at Week(rad): -0.6273217431 Argument of Perigee(rad): 0.9656854727 Mean Anom(rad): -2.659087537 Af0(s): -8.441152344e-05 Af1(s/s): -1.818989e-11 week: 147 ******** Week 147 almanac for PRN-4 ******** ID: 4 Health: 0 Eccentricity: 0.001693248749 Time of Applicability(s): 503808 Orbital Inclination(rad): 0.961442832 Rate of Right Ascen(r/s): -7.748894201e-09 SQRT(A) (m 1/2): 5153.612305 Right Ascen at Week(rad): 0.4536021638 Argument of Perigee(rad): -3.076889825 Mean Anom(rad): 0.2975626869 Af0(s): -0.0001514885376 Af1(s/s): 3.637979e-12 week: 147 ******** Week 147 almanac for PRN-5 ******** ID: 5 Health: 0 Eccentricity: 0.00586938858 Time of Applicability(s): 503808 Orbital Inclination(rad): 0.9594774191 Rate of Right Ascen(r/s): -8.286059433e-09 SQRT(A) (m 1/2): 5153.603027 Right Ascen at Week(rad): -0.6675804996 Argument of Perigee(rad): 1.011168228 Mean Anom(rad): 1.152080617 Af0(s): -5.577189941e-05 Af1(s/s): 0 week: 147 ******** Week 147 almanac for PRN-6 ******** ID: 6 Health: 0 Eccentricity: 0.002668857574 Time of Applicability(s): 503808 Orbital Inclination(rad): 0.9859625561 Rate of Right Ascen(r/s): -7.771752296e-09 SQRT(A) (m 1/2): 5153.619141 Right Ascen at Week(rad): -1.671181438 Argument of Perigee(rad): -0.9715528743 Mean Anom(rad): -1.156979169 Af0(s): 0.0001514885376 Af1(s/s): 1.091394e-11 week: 147 ******** Week 147 almanac for PRN-7 ******** ID: 7 Health: 0 Eccentricity: 0.01550006866 Time of Applicability(s): 503808 Orbital Inclination(rad): 0.9506330611 Rate of Right Ascen(r/s): -8.000333246e-09 SQRT(A) (m 1/2): 5153.641602 Right Ascen at Week(rad): 1.472618186 Argument of Perigee(rad): -2.293268697 Mean Anom(rad): -2.164928509 Af0(s): 0.0002434368042 Af1(s/s): 3.637979e-12 week: 147 ******** Week 147 almanac for PRN-8 ******** ID: 8 Health: 0 Eccentricity: 0.007247447967 Time of Applicability(s): 503808 Orbital Inclination(rad): 0.9651459575 Rate of Right Ascen(r/s): -7.771752296e-09 SQRT(A) (m 1/2): 5153.67041 Right Ascen at Week(rad): -2.742423964 Argument of Perigee(rad): 0.0950543779 Mean Anom(rad): 0.7787177073 Af0(s): -4.371311035e-05 Af1(s/s): 0 week: 147 ******** Week 147 almanac for PRN-9 ******** ID: 9 Health: 0 Eccentricity: 0.002285957336 Time of Applicability(s): 503808 Orbital Inclination(rad): 0.9544500368 Rate of Right Ascen(r/s): -7.851755628e-09 SQRT(A) (m 1/2): 5153.582031 Right Ascen at Week(rad): 0.4007498595 Argument of Perigee(rad): 1.871623592 Mean Anom(rad): 1.124749468 Af0(s): -0.00028112052 Af1(s/s): 0 week: 147 ******** Week 147 almanac for PRN-10 ******** ID: 10 Health: 0 Eccentricity: 0.00749540329 Time of Applicability(s): 503808 Orbital Inclination(rad): 0.9723364924 Rate of Right Ascen(r/s): -8.114623721e-09 SQRT(A) (m 1/2): 5153.625488 Right Ascen at Week(rad): -0.630115191 Argument of Perigee(rad): -2.521083944 Mean Anom(rad): 2.759682372 Af0(s): -0.0002464515015 Af1(s/s): -1.091394e-11 week: 147 ******** Week 147 almanac for PRN-11 ******** ID: 11 Health: 255 Eccentricity: 0.0002827644348 Time of Applicability(s): 503808 Orbital Inclination(rad): 0.9616825165 Rate of Right Ascen(r/s): -8.057478483e-09 SQRT(A) (m 1/2): 5153.716797 Right Ascen at Week(rad): -1.618872544 Argument of Perigee(rad): 2.841452611 Mean Anom(rad): 0.6566726079 Af0(s): -8.893356934e-05 Af1(s/s): -4.001777e-11 week: 147 ******** Week 147 almanac for PRN-12 ******** ID: 12 Health: 0 Eccentricity: 0.008655548096 Time of Applicability(s): 503808 Orbital Inclination(rad): 0.9704310007 Rate of Right Ascen(r/s): -8.023191341e-09 SQRT(A) (m 1/2): 5153.550293 Right Ascen at Week(rad): 2.585521997 Argument of Perigee(rad): 1.242666002 Mean Anom(rad): -2.821589507 Af0(s): -0.0001311393311 Af1(s/s): -7.275958e-12 week: 147 ******** Week 147 almanac for PRN-13 ******** ID: 13 Health: 0 Eccentricity: 0.005797386169 Time of Applicability(s): 503808 Orbital Inclination(rad): 0.9688430909 Rate of Right Ascen(r/s): -7.668890868e-09 SQRT(A) (m 1/2): 5153.633301 Right Ascen at Week(rad): 0.5533704617 Argument of Perigee(rad): 0.9641425038 Mean Anom(rad): 0.1906581576 Af0(s): 0.0002027383911 Af1(s/s): 7.275958e-12 week: 147 ******** Week 147 almanac for PRN-14 ******** ID: 14 Health: 0 Eccentricity: 0.001394748688 Time of Applicability(s): 503808 Orbital Inclination(rad): 0.9538268571 Rate of Right Ascen(r/s): -8.194627053e-09 SQRT(A) (m 1/2): 5153.585938 Right Ascen at Week(rad): 2.554400838 Argument of Perigee(rad): 3.025117598 Mean Anom(rad): -2.764511265 Af0(s): -6.330864258e-05 Af1(s/s): -3.637979e-12 week: 147 ******** Week 147 almanac for PRN-15 ******** ID: 15 Health: 0 Eccentricity: 0.01392364502 Time of Applicability(s): 503808 Orbital Inclination(rad): 0.930325792 Rate of Right Ascen(r/s): -8.114623721e-09 SQRT(A) (m 1/2): 5153.681641 Right Ascen at Week(rad): 0.2950231548 Argument of Perigee(rad): 1.074188773 Mean Anom(rad): -0.2247686323 Af0(s): -6.858436279e-05 Af1(s/s): 3.637979e-12 week: 147 ******** Week 147 almanac for PRN-16 ******** ID: 16 Health: 0 Eccentricity: 0.01273107529 Time of Applicability(s): 503808 Orbital Inclination(rad): 0.9704010401 Rate of Right Ascen(r/s): -8.011762293e-09 SQRT(A) (m 1/2): 5153.541504 Right Ascen at Week(rad): 2.604142112 Argument of Perigee(rad): 0.7041986733 Mean Anom(rad): 1.60682278 Af0(s): -0.0003677930664 Af1(s/s): -3.637979e-12 week: 147 ******** Week 147 almanac for PRN-17 ******** ID: 17 Health: 0 Eccentricity: 0.01365041733 Time of Applicability(s): 503808 Orbital Inclination(rad): 0.9802340966 Rate of Right Ascen(r/s): -7.600316584e-09 SQRT(A) (m 1/2): 5153.711426 Right Ascen at Week(rad): -2.66072975 Argument of Perigee(rad): -1.501311042 Mean Anom(rad): 0.6843689007 Af0(s): 0.0004506972412 Af1(s/s): 3.637979e-12 week: 147 ******** Week 147 almanac for PRN-18 ******** ID: 18 Health: 0 Eccentricity: 0.00209569931 Time of Applicability(s): 503808 Orbital Inclination(rad): 0.9703710795 Rate of Right Ascen(r/s): -7.954617056e-09 SQRT(A) (m 1/2): 5153.575195 Right Ascen at Week(rad): -1.654928582 Argument of Perigee(rad): 3.105116794 Mean Anom(rad): -1.299634888 Af0(s): 0.0001952016479 Af1(s/s): -7.275958e-12 week: 147 ******** Week 147 almanac for PRN-19 ******** ID: 19 Health: 0 Eccentricity: 0.008947849274 Time of Applicability(s): 503808 Orbital Inclination(rad): 0.9789637688 Rate of Right Ascen(r/s): -7.611745631e-09 SQRT(A) (m 1/2): 5153.64209 Right Ascen at Week(rad): -2.615856318 Argument of Perigee(rad): 2.004066879 Mean Anom(rad): 3.091729666 Af0(s): 9.044091797e-05 Af1(s/s): 3.637979e-12 week: 147 ******** Week 147 almanac for PRN-20 ******** ID: 20 Health: 0 Eccentricity: 0.005214214325 Time of Applicability(s): 503808 Orbital Inclination(rad): 0.9416089398 Rate of Right Ascen(r/s): -8.468924193e-09 SQRT(A) (m 1/2): 5153.678711 Right Ascen at Week(rad): -0.7814227716 Argument of Perigee(rad): 3.123498722 Mean Anom(rad): -0.4681113151 Af0(s): 0.0004084914795 Af1(s/s): 0 week: 147 ******** Week 147 almanac for PRN-21 ******** ID: 21 Health: 0 Eccentricity: 0.02457427978 Time of Applicability(s): 503808 Orbital Inclination(rad): 0.9591838056 Rate of Right Ascen(r/s): -7.931758961e-09 SQRT(A) (m 1/2): 5153.538086 Right Ascen at Week(rad): -1.753547144 Argument of Perigee(rad): -1.011955442 Mean Anom(rad): 0.8613800222 Af0(s): 0.0001243562622 Af1(s/s): 0 week: 147 ******** Week 147 almanac for PRN-22 ******** ID: 22 Health: 0 Eccentricity: 0.012840271 Time of Applicability(s): 503808 Orbital Inclination(rad): 0.9615806506 Rate of Right Ascen(r/s): -7.748894201e-09 SQRT(A) (m 1/2): 5153.609863 Right Ascen at Week(rad): 0.5018944707 Argument of Perigee(rad): -1.875356304 Mean Anom(rad): 0.5523409419 Af0(s): 0.0001650546753 Af1(s/s): 7.275958e-12 week: 147 ******** Week 147 almanac for PRN-23 ******** ID: 23 Health: 0 Eccentricity: 0.001977920532 Time of Applicability(s): 503808 Orbital Inclination(rad): 0.9673750233 Rate of Right Ascen(r/s): -8.183198006e-09 SQRT(A) (m 1/2): 5153.645508 Right Ascen at Week(rad): -0.6549161699 Argument of Perigee(rad): 2.951036363 Mean Anom(rad): -2.198895922 Af0(s): 3.768371582e-06 Af1(s/s): -3.637979e-12 week: 147 ******** Week 147 almanac for PRN-24 ******** ID: 24 Health: 0 Eccentricity: 0.01232004166 Time of Applicability(s): 503808 Orbital Inclination(rad): 0.934160744 Rate of Right Ascen(r/s): -8.160339911e-09 SQRT(A) (m 1/2): 5153.63916 Right Ascen at Week(rad): 1.390016542 Argument of Perigee(rad): 0.8060683301 Mean Anom(rad): -1.199640388 Af0(s): 0.0002178118774 Af1(s/s): 0 week: 147 ******** Week 147 almanac for PRN-25 ******** ID: 25 Health: 0 Eccentricity: 0.0104675293 Time of Applicability(s): 503808 Orbital Inclination(rad): 0.9578116118 Rate of Right Ascen(r/s): -8.171768958e-09 SQRT(A) (m 1/2): 5153.654785 Right Ascen at Week(rad): 2.508935685 Argument of Perigee(rad): 0.9775348751 Mean Anom(rad): -3.06856341 Af0(s): 0.0002223339233 Af1(s/s): 7.275958e-12 week: 147 ******** Week 147 almanac for PRN-26 ******** ID: 26 Health: 0 Eccentricity: 0.006852149963 Time of Applicability(s): 503808 Orbital Inclination(rad): 0.9386188757 Rate of Right Ascen(r/s): -8.377491813e-09 SQRT(A) (m 1/2): 5153.629395 Right Ascen at Week(rad): 2.462140657 Argument of Perigee(rad): 0.3632931645 Mean Anom(rad): 2.563130222 Af0(s): 0.0001424444458 Af1(s/s): 3.637979e-12 week: 147 ******** Week 147 almanac for PRN-27 ******** ID: 27 Health: 0 Eccentricity: 0.01016139984 Time of Applicability(s): 503808 Orbital Inclination(rad): 0.9738345205 Rate of Right Ascen(r/s): -7.691748963e-09 SQRT(A) (m 1/2): 5153.606934 Right Ascen at Week(rad): -2.723096031 Argument of Perigee(rad): 0.6341171731 Mean Anom(rad): 0.7258882479 Af0(s): 8.215050049e-05 Af1(s/s): 1.818989e-11 week: 147 ******** Week 147 almanac for PRN-29 ******** ID: 29 Health: 0 Eccentricity: 0.001801013947 Time of Applicability(s): 503808 Orbital Inclination(rad): 0.9822354622 Rate of Right Ascen(r/s): -7.566029441e-09 SQRT(A) (m 1/2): 5153.716309 Right Ascen at Week(rad): -2.647745591 Argument of Perigee(rad): 2.267953145 Mean Anom(rad): 0.8434467531 Af0(s): -0.0003760834839 Af1(s/s): -3.637979e-12 week: 147 ******** Week 147 almanac for PRN-30 ******** ID: 30 Health: 0 Eccentricity: 0.005478858948 Time of Applicability(s): 503808 Orbital Inclination(rad): 0.9358085749 Rate of Right Ascen(r/s): -8.148910863e-09 SQRT(A) (m 1/2): 5153.524902 Right Ascen at Week(rad): 1.485918055 Argument of Perigee(rad): -2.748942259 Mean Anom(rad): -2.134587073 Af0(s): -0.0004039694336 Af1(s/s): -3.637979e-12 week: 147 ******** Week 147 almanac for PRN-31 ******** ID: 31 Health: 0 Eccentricity: 0.01045608521 Time of Applicability(s): 503808 Orbital Inclination(rad): 0.9548634925 Rate of Right Ascen(r/s): -7.954617056e-09 SQRT(A) (m 1/2): 5153.629883 Right Ascen at Week(rad): 1.490674294 Argument of Perigee(rad): 0.3732400712 Mean Anom(rad): -2.617894385 Af0(s): -0.0001288783081 Af1(s/s): -3.637979e-12 week: 147 ******** Week 147 almanac for PRN-32 ******** ID: 32 Health: 0 Eccentricity: 0.005528450012 Time of Applicability(s): 503808 Orbital Inclination(rad): 0.9583089572 Rate of Right Ascen(r/s): -7.806039438e-09 SQRT(A) (m 1/2): 5153.726074 Right Ascen at Week(rad): 0.4119015552 Argument of Perigee(rad): -2.362661479 Mean Anom(rad): 1.384216551 Af0(s): -4.898883057e-05 Af1(s/s): -7.275958e-12 week: 147